Location: Krasnoyarskiy Pitomnik
(51.1333°N, 71.6167°E)
Time: 18:06:13
(UTC+00:00)

Vanguard 2 - Pass Details

Date: 27 April 2024
Orbit: 553 x 2914 km, 32.9° (Epoch: 22 May)

Event Time Altitude Azimuth Distance (km) Brightness Sun altitude
Exits shadow 22:57:21 - 259° (W) 5,599 11.3 -8.3°
Reaches altitude 10° 22:59:47 10° 254° (WSW) 5,178 11.1 -7.9°
Maximum altitude 23:13:04 34° 198° (SSW) 4,057 10.8 -6.2°
Drops below altitude 10° 23:27:29 10° 143° (SE) 5,599 12.0 -4.3°
Sets 23:32:12 0° 135° (SE) 6,439 12.5 -3.6°
